Tracking 18843 objects as of 20-November-2017
HD Live streaming from Space Station
objects crossing your sky now

FENGYUN 1C DEB

Track FENGYUN 1C DEB now!
10-day predictions


NORAD ID: 30093
Int'l Code: 1999-025QW
Perigee: 731.7 km
Apogee: 849.3 km
Inclination: 98.8 °
Period: 100.5 minutes
Semi major axis: 7161 km
RCS: 0.066 m2 (small)
Launch date: May 10, 1999
Source: People's Republic of China (PRC)
Launch site: Taiyaun Space Center, China (TSC)

Note: This is SATELLITE DEBRIS
aabbcc
Your satellite tracking list
Your tracking list is empty




NASA's NSSDC Master Catalog

Two Line Element Set (TLE):
1 30093U 99025QW  17324.55974604  .00000449  00000-0  17581-3 0  9999
2 30093  98.7769  71.9800 0082086 352.6911  71.9429 14.32511451565802
Source of the keplerian elements: AFSPC